Location: Newark
(23.3970°S, 47.6010°W)
Time: 19:37:00
(UTC+00:00)

Explorer 11/Cluster Stage 4 - All Passes

Search period start: 16 February 2020 00:00
Search period end: 26 February 2020 00:00
Orbit: 467 x 1259 km, 28.8° (Epoch: 16 February)

Date Brightness Start Highest point End Pass type
(mag) Time Alt. Az. Time Alt. Az. Time Alt. Az.
16 Feb - 00:16:52 10° WSW 00:24:24 84° NNW 00:30:27 10° ENE visible
16 Feb - 02:07:24 10° W 02:12:51 28° NNW 02:17:22 10° NNE visible
16 Feb - 15:05:40 10° NNE 15:06:29 10° NE 15:07:18 10° NE daylight
16 Feb - 16:48:09 10° NW 16:54:53 40° NNE 17:02:23 10° E daylight
16 Feb - 18:36:08 10° WNW 18:44:06 89° NNE 18:52:27 10° ESE daylight
16 Feb - 20:25:49 10° W 20:34:01 61° S 20:41:51 10° ESE daylight
16 Feb - 22:15:56 10° WSW 22:24:05 63° S 22:31:12 10° E visible
17 Feb - 00:05:54 10° WSW 00:13:36 76° NNW 00:19:51 10° ENE visible
17 Feb - 01:56:44 10° W 02:02:00 25° NW 02:06:30 10° NNE visible
17 Feb - 14:53:02 10° NNE 14:55:35 12° NE 14:58:17 10° ENE daylight
17 Feb - 16:37:14 10° NW 16:43:56 45° NNE 16:51:35 10° E daylight
17 Feb - 18:25:22 10° WNW 18:33:12 85° SSW 18:41:35 10° ESE daylight
17 Feb - 20:15:03 10° W 20:23:11 60° S 20:31:07 10° ESE daylight
17 Feb - 22:05:01 10° WSW 22:13:17 67° S 22:20:36 10° E visible
17 Feb - 23:54:58 10° WSW 00:02:46 69° NNW 00:09:12 10° ENE visible
18 Feb - 01:46:06 10° W 01:51:10 22° NW 01:55:31 10° NNE visible
18 Feb - 14:41:23 10° N 14:44:41 14° NE 14:48:16 10° ENE daylight
18 Feb - 16:26:23 10° NW 16:33:00 50° NNE 16:40:44 10° E daylight
18 Feb - 18:14:39 10° WNW 18:22:19 79° SSW 18:30:42 10° ESE daylight
18 Feb - 20:04:16 10° W 20:12:22 59° S 20:20:23 10° ESE daylight
18 Feb - 21:54:08 10° WSW 22:02:27 71° SSE 22:09:58 10° E visible
18 Feb - 23:44:02 10° WSW 23:51:54 61° NNW 23:58:30 10° NE visible
19 Feb - 01:35:33 10° WNW 01:40:16 19° NW 01:44:27 10° N visible
19 Feb - 14:30:02 10° N 14:33:48 17° NE 14:37:59 10° ENE daylight
19 Feb - 16:15:35 10° NW 16:22:06 57° NNE 16:29:51 10° ESE daylight
19 Feb - 18:04:00 10° W 18:11:28 74° SSW 18:19:48 10° ESE daylight
19 Feb - 19:53:32 10° WSW 20:01:32 59° S 20:09:38 10° E daylight
19 Feb - 21:43:15 10° WSW 21:51:37 76° SSE 21:59:18 10° E daylight
19 Feb - 23:33:09 10° WSW 23:41:00 55° NNW 23:47:44 10° NE visible
20 Feb - 01:25:07 10° WNW 01:29:23 16° NW 01:33:14 10° N visible
20 Feb - 14:18:52 10° N 14:22:55 19° NE 14:27:32 10° E daylight
20 Feb - 16:04:52 10° NW 16:11:14 63° NNE 16:18:57 10° ESE daylight
20 Feb - 17:53:21 10° W 18:00:38 69° SSW 18:08:54 10° ESE daylight
20 Feb - 19:42:49 10° WSW 19:50:43 60° S 19:58:52 10° E daylight
20 Feb - 21:32:22 10° WSW 21:40:44 81° SSE 21:48:35 10° ENE daylight
20 Feb - 23:22:17 10° W 23:30:05 49° NNW 23:36:54 10° NE visible
21 Feb - 01:14:52 10° WNW 01:18:28 14° NW 01:21:49 10° N visible
21 Feb - 14:07:51 10° NNW 14:12:03 22° NE 14:16:58 10° E daylight
21 Feb - 15:54:12 10° WNW 16:00:23 71° NNE 16:08:01 10° ESE daylight
21 Feb - 17:42:45 10° W 17:49:50 65° S 17:58:00 10° ESE daylight
21 Feb - 19:32:06 10° WSW 19:39:53 60° S 19:48:05 10° E daylight
21 Feb - 21:21:30 10° WSW 21:29:51 87° SSE 21:37:51 10° ENE daylight
21 Feb - 23:11:28 10° W 23:19:09 43° NNW 23:26:01 10° NE visible
22 Feb - 01:04:57 10° WNW 01:07:34 12° NW 01:10:04 10° NNW visible
22 Feb - 13:56:54 10° NNW 14:01:13 25° NE 14:06:21 10° E daylight
22 Feb - 15:43:34 10° WNW 15:49:35 79° NNE 15:57:04 10° ESE daylight
22 Feb - 17:32:11 10° W 17:39:02 62° S 17:47:04 10° ESE daylight
22 Feb - 19:21:23 10° WSW 19:29:03 62° S 19:37:18 10° E daylight
22 Feb - 21:10:40 10° WSW 21:18:57 87° NNW 21:27:03 10° ENE daylight
22 Feb - 23:00:42 10° W 23:08:11 38° NNW 23:15:02 10° NE visible
23 Feb - 13:46:03 10° NNW 13:50:23 28° NNE 13:55:39 10° E daylight
23 Feb - 15:33:00 10° WNW 15:38:48 87° NNE 15:46:07 10° ESE daylight
23 Feb - 17:21:38 10° W 17:28:16 59° S 17:36:09 10° ESE daylight
23 Feb - 19:10:42 10° WSW 19:18:14 64° S 19:26:29 10° E daylight
23 Feb - 20:59:52 10° WSW 21:08:02 80° NNW 21:16:12 10° ENE daylight
23 Feb - 22:49:58 10° W 22:57:13 34° NNW 23:03:59 10° NNE visible
24 Feb - 13:35:16 10° NNW 13:39:36 33° NNE 13:44:55 10° E daylight
24 Feb - 15:22:28 10° WNW 15:28:04 84° SSW 15:35:09 10° ESE daylight
24 Feb - 17:11:07 10° W 17:17:32 57° S 17:25:14 10° ESE daylight
24 Feb - 19:00:01 10° WSW 19:07:24 66° S 19:15:38 10° E daylight
24 Feb - 20:49:04 10° WSW 20:57:06 73° NNW 21:05:18 10° ENE daylight
24 Feb - 22:39:21 10° W 22:46:15 29° NNW 22:52:50 10° NNE visible
25 Feb - 13:24:33 10° NW 13:28:51 37° NNE 13:34:10 10° E daylight
25 Feb - 15:11:59 10° W 15:17:21 76° SSW 15:24:12 10° ESE daylight
25 Feb - 17:00:36 10° WSW 17:06:48 55° S 17:14:20 10° ESE daylight
25 Feb - 18:49:21 10° WSW 18:56:34 70° SSE 19:04:47 10° E daylight
25 Feb - 20:38:20 10° WSW 20:46:10 66° NNW 20:54:22 10° NE daylight
25 Feb - 22:28:48 10° W 22:35:17 26° NNW 22:41:35 10° NNE visible
